• In United Kingdom
  • List of Countries
  • For 7 days
  • Water Temperature
  • Satellite Maps
  • Weather Map
  • Weather Widgets
  • user-avatar
    Login

    Hourly Weather Polanur

    Today, 21 September, Friday

    Time Temperature Precipitation Wind Pressure Humidity
    00:00 +10°C° 0 mm 0 mps 749 mmHg 95%
    01:00 +10°C° 0 mm 0 mps 749 mmHg 95%
    02:00 +10°C° 0 mm 0 mps 749 mmHg 95%
    03:00 +9°C° 0 mm 0 mps 750 mmHg 95%
    04:00 +10°C° 0 mm 0 mps 750 mmHg 94%
    05:00 +10°C° 0 mm 0 mps 750 mmHg 94%
    06:00 +10°C° 0 mm 0 mps 751 mmHg 94%
    07:00 +11°C° 0 mm 0 mps 751 mmHg 92%
    08:00 +13°C° 0 mm 1 mps 752 mmHg 90%
    09:00 +14°C° 0 mm 1 mps 752 mmHg 88%
    10:00 +14°C° 0 mm 1 mps 752 mmHg 87%
    11:00 +15°C° 0 mm 1 mps 752 mmHg 86%
    12:00 +16°C° 0 mm 2 mps 753 mmHg 85%
    13:00 +16°C° 0 mm 2 mps 753 mmHg 83%
    14:00 +17°C° 0 mm 2 mps 753 mmHg 81%
    15:00 +18°C° 0 mm 2 mps 753 mmHg 79%
    16:00 +17°C° 0 mm 2 mps 753 mmHg 83%
    17:00 +16°C° 0 mm 1 mps 753 mmHg 87%
    18:00 +15°C° 0 mm 1 mps 753 mmHg 91%
    19:00 +15°C° 0 mm 1 mps 753 mmHg 92%
    20:00 +14°C° 0 mm 2 mps 753 mmHg 93%
    21:00 +14°C° 0 mm 2 mps 754 mmHg 94%
    22:00 +14°C° 0 mm 2 mps 754 mmHg 94%
    23:00 +14°C° 0 mm 2 mps 754 mmHg 95%

    Tomorrow, 22 September, Saturday

    Time Temperature Precipitation Wind Pressure Humidity
    00:00 +14°C° 0 mm 2 mps 754 mmHg 95%
    01:00 +13°C° 0 mm 2 mps 754 mmHg 95%
    02:00 +13°C° 0 mm 2 mps 754 mmHg 95%
    03:00 +13°C° 0 mm 2 mps 754 mmHg 96%
    04:00 +13°C° 0 mm 2 mps 754 mmHg 96%
    05:00 +13°C° 0 mm 2 mps 754 mmHg 96%
    06:00 +13°C° 0 mm 2 mps 755 mmHg 97%
    07:00 +15°C° 0 mm 2 mps 755 mmHg 92%
    08:00 +16°C° 0 mm 2 mps 755 mmHg 87%
    09:00 +18°C° 0 mm 2 mps 755 mmHg 82%
    10:00 +20°C° 0 mm 2 mps 755 mmHg 76%
    11:00 +21°C° 0 mm 2 mps 755 mmHg 69%
    12:00 +24°C° 0 mm 2 mps 755 mmHg 63%
    13:00 +24°C° 0 mm 2 mps 755 mmHg 62%
    14:00 +24°C° 0 mm 2 mps 754 mmHg 61%
    15:00 +25°C° 0 mm 2 mps 754 mmHg 59%
    16:00 +23°C° 0 mm 2 mps 754 mmHg 66%
    17:00 +20°C° 0 mm 2 mps 754 mmHg 73%
    18:00 +19°C° 0 mm 2 mps 754 mmHg 80%
    19:00 +18°C° 0 mm 2 mps 754 mmHg 84%
    20:00 +17°C° 0 mm 2 mps 754 mmHg 87%
    21:00 +16°C° 0 mm 2 mps 754 mmHg 90%
    22:00 +16°C° 0 mm 2 mps 754 mmHg 91%
    23:00 +15°C° 0 mm 2 mps 754 mmHg 92%

    Day after tomorrow, 23 September, Sunday

    Time Temperature Precipitation Wind Pressure Humidity
    00:00 +15°C° 0 mm 2 mps 754 mmHg 93%
    01:00 +15°C° 0 mm 2 mps 754 mmHg 94%
    02:00 +14°C° 0 mm 2 mps 753 mmHg 94%
    03:00 +14°C° 0 mm 2 mps 753 mmHg 95%
    04:00 +14°C° 0 mm 2 mps 753 mmHg 95%
    05:00 +13°C° 0 mm 3 mps 753 mmHg 95%
    06:00 +13°C° 0 mm 3 mps 753 mmHg 95%
    07:00 +14°C° 0 mm 3 mps 753 mmHg 87%
    08:00 +17°C° 0 mm 4 mps 753 mmHg 79%
    09:00 +19°C° 0 mm 4 mps 753 mmHg 72%
    10:00 +20°C° 0 mm 5 mps 752 mmHg 66%
    11:00 +22°C° 0 mm 5 mps 752 mmHg 60%
    12:00 +23°C° 0 mm 5 mps 752 mmHg 54%
    13:00 +23°C° 0 mm 5 mps 751 mmHg 54%
    14:00 +23°C° 0 mm 5 mps 751 mmHg 54%
    15:00 +23°C° 0 mm 5 mps 751 mmHg 54%
    16:00 +22°C° 0 mm 5 mps 750 mmHg 59%
    17:00 +20°C° 0 mm 5 mps 750 mmHg 64%
    18:00 +19°C° 0 mm 4 mps 750 mmHg 69%
    19:00 +18°C° 0 mm 4 mps 750 mmHg 70%
    20:00 +17°C° 0 mm 5 mps 749 mmHg 71%
    21:00 +16°C° 0 mm 5 mps 749 mmHg 72%
    22:00 +16°C° 0 mm 5 mps 748 mmHg 72%
    23:00 +16°C° 0 mm 5 mps 748 mmHg 71%

    24 September, Monday

    Time Temperature Precipitation Wind Pressure Humidity
    00:00 +15°C° 0 mm 5 mps 748 mmHg 71%
    01:00 +15°C° 0 mm 5 mps 747 mmHg 68%
    02:00 +14°C° 0 mm 5 mps 747 mmHg 66%
    03:00 +14°C° 0 mm 5 mps 747 mmHg 63%
    04:00 +14°C° 0 mm 5 mps 747 mmHg 62%
    05:00 +13°C° 0 mm 5 mps 746 mmHg 61%
    06:00 +13°C° 0 mm 5 mps 746 mmHg 61%
    07:00 +14°C° 0 mm 5 mps 746 mmHg 57%
    08:00 +15°C° 0 mm 5 mps 746 mmHg 54%
    09:00 +16°C° 0 mm 6 mps 746 mmHg 50%
    10:00 +17°C° 0 mm 6 mps 746 mmHg 48%
    11:00 +19°C° 0 mm 6 mps 746 mmHg 46%
    12:00 +20°C° 0 mm 6 mps 746 mmHg 45%
    13:00 +20°C° 0 mm 5 mps 747 mmHg 47%
    14:00 +19°C° 0 mm 5 mps 747 mmHg 50%
    15:00 +19°C° 0 mm 5 mps 748 mmHg 52%
    16:00 +17°C° 0.1 mm 4 mps 748 mmHg 62%
    17:00 +14°C° 0.1 mm 3 mps 748 mmHg 71%
    18:00 +13°C° 0.1 mm 2 mps 749 mmHg 80%
    19:00 +12°C° 0 mm 2 mps 749 mmHg 82%
    20:00 +12°C° 0 mm 2 mps 749 mmHg 84%
    21:00 +10°C° 0 mm 2 mps 749 mmHg 87%
    22:00 +10°C° 0 mm 2 mps 749 mmHg 87%
    23:00 +10°C° 0 mm 2 mps 749 mmHg 87%

    25 September, Tuesday

    Time Temperature Precipitation Wind Pressure Humidity
    00:00 +10°C° 0 mm 2 mps 749 mmHg 87%
    01:00 +10°C° 0.1 mm 2 mps 749 mmHg 87%
    02:00 +12°C° 0.1 mm 2 mps 749 mmHg 87%
    03:00 +11°C° 0.1 mm 3 mps 748 mmHg 87%
    04:00 +11°C° 0 mm 3 mps 748 mmHg 86%
    05:00 +11°C° 0 mm 3 mps 748 mmHg 85%
    06:00 +11°C° 0 mm 3 mps 747 mmHg 84%
    07:00 +12°C° 0 mm 4 mps 747 mmHg 81%
    08:00 +14°C° 0 mm 5 mps 747 mmHg 78%
    09:00 +15°C° 0 mm 5 mps 746 mmHg 75%
    10:00 +16°C° 0 mm 6 mps 746 mmHg 71%
    11:00 +17°C° 0 mm 6 mps 746 mmHg 67%
    12:00 +18°C° 0 mm 7 mps 746 mmHg 63%
    13:00 +19°C° 0 mm 6 mps 746 mmHg 64%
    14:00 +17°C° 0 mm 6 mps 746 mmHg 66%
    15:00 +17°C° 0 mm 6 mps 746 mmHg 67%
    16:00 +16°C° 0.1 mm 5 mps 746 mmHg 70%
    17:00 +15°C° 0.1 mm 5 mps 746 mmHg 72%
    18:00 +14°C° 0.1 mm 5 mps 746 mmHg 75%
    19:00 +14°C° 0 mm 5 mps 745 mmHg 72%
    20:00 +14°C° 0 mm 5 mps 745 mmHg 70%
    21:00 +14°C° 0 mm 5 mps 745 mmHg 68%
    22:00 +13°C° 0.2 mm 5 mps 745 mmHg 70%
    23:00 +13°C° 0.2 mm 5 mps 745 mmHg 72%

    26 September, Wednesday

    Time Temperature Precipitation Wind Pressure Humidity
    00:00 +11°C° 0.2 mm 6 mps 745 mmHg 74%
    01:00 +11°C° 1.1 mm 6 mps 745 mmHg 79%
    02:00 +10°C° 1.1 mm 6 mps 745 mmHg 83%
    03:00 +10°C° 1.1 mm 6 mps 745 mmHg 88%
    04:00 +10°C° 0.7 mm 6 mps 744 mmHg 87%
    05:00 +10°C° 0.7 mm 7 mps 744 mmHg 87%
    06:00 +10°C° 0.7 mm 7 mps 744 mmHg 87%
    07:00 +10°C° 0.4 mm 7 mps 744 mmHg 85%
    08:00 +10°C° 0.4 mm 7 mps 744 mmHg 84%
    09:00 +10°C° 0.4 mm 7 mps 744 mmHg 83%
    10:00 +11°C° 0.1 mm 7 mps 745 mmHg 76%
    11:00 +11°C° 0.1 mm 7 mps 745 mmHg 70%
    12:00 +12°C° 0.1 mm 7 mps 745 mmHg 64%
    13:00 +11°C° 0.1 mm 7 mps 746 mmHg 64%
    14:00 +10°C° 0.1 mm 7 mps 746 mmHg 64%
    15:00 +10°C° 0.1 mm 7 mps 746 mmHg 64%
    16:00 +9°C° 0 mm 7 mps 747 mmHg 67%
    17:00 +9°C° 0 mm 7 mps 747 mmHg 69%
    18:00 +8°C° 0 mm 6 mps 748 mmHg 71%
    19:00 +8°C° 0 mm 6 mps 748 mmHg 73%
    20:00 +8°C° 0 mm 6 mps 748 mmHg 75%
    21:00 +8°C° 0 mm 6 mps 749 mmHg 77%
    22:00 +8°C° 0 mm 6 mps 749 mmHg 77%
    23:00 +8°C° 0 mm 5 mps 749 mmHg 78%
    Show more